• In France
  • List of Countries
  • For 7 days
  • Water Temperature
  • Satellite Maps
  • Weather Map
  • Weather Widgets
  • user-avatar
    Login

    Hourly Weather Dobrodushnoe

    Today, 21 July, Saturday

    Time Temperature Precipitation Wind Pressure Humidity
    00:00 +20°C° 0.1 mm 2 mps 741 mmHg 92%
    01:00 +20°C° 0 mm 2 mps 741 mmHg 93%
    02:00 +20°C° 0 mm 2 mps 741 mmHg 93%
    03:00 +19°C° 0 mm 2 mps 741 mmHg 95%
    04:00 +19°C° 0 mm 3 mps 741 mmHg 94%
    05:00 +20°C° 0 mm 3 mps 741 mmHg 94%
    06:00 +20°C° 0 mm 3 mps 741 mmHg 93%
    07:00 +21°C° 0 mm 3 mps 741 mmHg 88%
    08:00 +24°C° 0 mm 3 mps 741 mmHg 83%
    09:00 +23°C° 0 mm 4 mps 742 mmHg 78%
    10:00 +25°C° 0.3 mm 4 mps 742 mmHg 74%
    11:00 +26°C° 0.3 mm 4 mps 742 mmHg 70%
    12:00 +27°C° 0.3 mm 4 mps 742 mmHg 66%
    13:00 +28°C° 0.4 mm 5 mps 741 mmHg 66%
    14:00 +28°C° 0.4 mm 5 mps 741 mmHg 66%
    15:00 +28°C° 0.4 mm 5 mps 741 mmHg 66%
    16:00 +28°C° 0.6 mm 5 mps 741 mmHg 70%
    17:00 +27°C° 0.6 mm 5 mps 741 mmHg 74%
    18:00 +26°C° 0.6 mm 4 mps 741 mmHg 79%
    19:00 +25°C° 0.1 mm 4 mps 741 mmHg 83%
    20:00 +23°C° 0.1 mm 4 mps 741 mmHg 87%
    21:00 +22°C° 0.1 mm 4 mps 742 mmHg 90%
    22:00 +21°C° 0 mm 4 mps 742 mmHg 92%
    23:00 +21°C° 0 mm 4 mps 742 mmHg 93%

    Tomorrow, 22 July, Sunday

    Time Temperature Precipitation Wind Pressure Humidity
    00:00 +20°C° 0 mm 4 mps 742 mmHg 95%
    01:00 +20°C° 0 mm 4 mps 742 mmHg 95%
    02:00 +20°C° 0 mm 4 mps 742 mmHg 96%
    03:00 +19°C° 0 mm 4 mps 742 mmHg 96%
    04:00 +19°C° 0 mm 4 mps 742 mmHg 95%
    05:00 +19°C° 0 mm 4 mps 742 mmHg 94%
    06:00 +20°C° 0 mm 4 mps 742 mmHg 94%
    07:00 +20°C° 0 mm 5 mps 742 mmHg 91%
    08:00 +21°C° 0 mm 5 mps 743 mmHg 89%
    09:00 +21°C° 0 mm 5 mps 743 mmHg 87%
    10:00 +21°C° 0 mm 5 mps 743 mmHg 85%
    11:00 +22°C° 0 mm 5 mps 743 mmHg 83%
    12:00 +22°C° 0 mm 5 mps 743 mmHg 81%
    13:00 +22°C° 0.1 mm 6 mps 743 mmHg 82%
    14:00 +21°C° 0.1 mm 6 mps 743 mmHg 83%
    15:00 +21°C° 0.1 mm 6 mps 743 mmHg 83%
    16:00 +21°C° 0.1 mm 6 mps 743 mmHg 84%
    17:00 +20°C° 0.1 mm 6 mps 744 mmHg 84%
    18:00 +20°C° 0.1 mm 6 mps 744 mmHg 85%
    19:00 +20°C° 0.1 mm 6 mps 744 mmHg 86%
    20:00 +19°C° 0.1 mm 5 mps 744 mmHg 88%
    21:00 +19°C° 0.1 mm 5 mps 744 mmHg 89%
    22:00 +19°C° 0.2 mm 5 mps 744 mmHg 90%
    23:00 +19°C° 0.2 mm 5 mps 744 mmHg 90%

    Day after tomorrow, 23 July, Monday

    Time Temperature Precipitation Wind Pressure Humidity
    00:00 +19°C° 0.2 mm 5 mps 744 mmHg 90%
    01:00 +17°C° 0 mm 5 mps 744 mmHg 90%
    02:00 +17°C° 0 mm 5 mps 744 mmHg 90%
    03:00 +17°C° 0 mm 5 mps 744 mmHg 91%
    04:00 +17°C° 0.1 mm 5 mps 744 mmHg 90%
    05:00 +17°C° 0.1 mm 5 mps 744 mmHg 90%
    06:00 +17°C° 0.1 mm 5 mps 743 mmHg 90%
    07:00 +19°C° 0.1 mm 5 mps 744 mmHg 87%
    08:00 +19°C° 0.1 mm 5 mps 744 mmHg 84%
    09:00 +20°C° 0.1 mm 6 mps 744 mmHg 80%
    10:00 +21°C° 0 mm 6 mps 744 mmHg 78%
    11:00 +22°C° 0 mm 6 mps 744 mmHg 75%
    12:00 +23°C° 0 mm 6 mps 744 mmHg 72%
    13:00 +23°C° 0.1 mm 6 mps 744 mmHg 72%
    14:00 +23°C° 0.1 mm 6 mps 744 mmHg 72%
    15:00 +24°C° 0.1 mm 6 mps 744 mmHg 73%
    16:00 +23°C° 0.5 mm 6 mps 744 mmHg 77%
    17:00 +23°C° 0.5 mm 5 mps 744 mmHg 81%
    18:00 +22°C° 0.5 mm 5 mps 744 mmHg 85%
    19:00 +21°C° 0 mm 5 mps 744 mmHg 85%
    20:00 +21°C° 0 mm 5 mps 745 mmHg 86%
    21:00 +20°C° 0 mm 5 mps 745 mmHg 86%
    22:00 +20°C° 0.3 mm 5 mps 745 mmHg 86%
    23:00 +19°C° 0.3 mm 5 mps 745 mmHg 86%

    24 July, Tuesday

    Time Temperature Precipitation Wind Pressure Humidity
    00:00 +19°C° 0.3 mm 5 mps 745 mmHg 86%
    01:00 +17°C° 0.1 mm 5 mps 745 mmHg 86%
    02:00 +17°C° 0.1 mm 5 mps 745 mmHg 87%
    03:00 +17°C° 0.1 mm 5 mps 745 mmHg 87%
    04:00 +16°C° 0.2 mm 5 mps 746 mmHg 88%
    05:00 +16°C° 0.2 mm 5 mps 746 mmHg 88%
    06:00 +16°C° 0.2 mm 5 mps 746 mmHg 88%
    07:00 +17°C° 0 mm 5 mps 746 mmHg 83%
    08:00 +20°C° 0 mm 5 mps 746 mmHg 79%
    09:00 +21°C° 0 mm 5 mps 747 mmHg 74%
    10:00 +23°C° 0 mm 5 mps 747 mmHg 69%
    11:00 +25°C° 0 mm 5 mps 747 mmHg 65%
    12:00 +27°C° 0 mm 5 mps 747 mmHg 61%
    13:00 +27°C° 0 mm 6 mps 747 mmHg 60%
    14:00 +27°C° 0 mm 6 mps 747 mmHg 59%
    15:00 +28°C° 0 mm 6 mps 747 mmHg 58%
    16:00 +27°C° 0.1 mm 5 mps 748 mmHg 61%
    17:00 +27°C° 0.1 mm 5 mps 748 mmHg 65%
    18:00 +26°C° 0.1 mm 4 mps 748 mmHg 68%
    19:00 +25°C° 0 mm 4 mps 748 mmHg 69%
    20:00 +23°C° 0 mm 4 mps 749 mmHg 71%
    21:00 +22°C° 0 mm 4 mps 749 mmHg 72%
    22:00 +22°C° 0 mm 4 mps 749 mmHg 70%
    23:00 +21°C° 0 mm 4 mps 749 mmHg 69%

    25 July, Wednesday

    Time Temperature Precipitation Wind Pressure Humidity
    00:00 +21°C° 0 mm 4 mps 749 mmHg 68%
    01:00 +20°C° 0 mm 4 mps 749 mmHg 67%
    02:00 +20°C° 0 mm 4 mps 749 mmHg 66%
    03:00 +20°C° 0 mm 4 mps 750 mmHg 65%
    04:00 +19°C° 0 mm 4 mps 750 mmHg 66%
    05:00 +19°C° 0 mm 4 mps 750 mmHg 68%
    06:00 +19°C° 0 mm 4 mps 750 mmHg 69%
    07:00 +20°C° 0 mm 4 mps 750 mmHg 68%
    08:00 +20°C° 0 mm 4 mps 751 mmHg 67%
    09:00 +21°C° 0 mm 4 mps 751 mmHg 66%
    10:00 +22°C° 0 mm 4 mps 751 mmHg 62%
    11:00 +25°C° 0 mm 4 mps 751 mmHg 57%
    12:00 +26°C° 0 mm 4 mps 751 mmHg 53%
    13:00 +26°C° 0 mm 4 mps 751 mmHg 54%
    14:00 +26°C° 0 mm 4 mps 751 mmHg 55%
    15:00 +26°C° 0 mm 4 mps 751 mmHg 56%
    16:00 +26°C° 0 mm 4 mps 751 mmHg 60%
    17:00 +26°C° 0 mm 4 mps 751 mmHg 63%
    18:00 +26°C° 0 mm 4 mps 751 mmHg 66%
    19:00 +25°C° 0 mm 3 mps 751 mmHg 70%
    20:00 +24°C° 0 mm 3 mps 751 mmHg 74%
    21:00 +22°C° 0 mm 3 mps 751 mmHg 78%
    22:00 +22°C° 0 mm 3 mps 752 mmHg 80%
    23:00 +21°C° 0 mm 3 mps 752 mmHg 83%

    26 July, Thursday

    Time Temperature Precipitation Wind Pressure Humidity
    00:00 +20°C° 0 mm 3 mps 752 mmHg 85%
    01:00 +20°C° 0 mm 4 mps 752 mmHg 84%
    02:00 +20°C° 0 mm 4 mps 752 mmHg 83%
    03:00 +20°C° 0 mm 4 mps 752 mmHg 82%
    04:00 +20°C° 0 mm 4 mps 752 mmHg 82%
    05:00 +20°C° 0 mm 4 mps 752 mmHg 82%
    06:00 +20°C° 0 mm 4 mps 753 mmHg 81%
    07:00 +22°C° 0 mm 4 mps 753 mmHg 76%
    08:00 +23°C° 0 mm 5 mps 753 mmHg 70%
    09:00 +26°C° 0 mm 5 mps 753 mmHg 65%
    10:00 +27°C° 0 mm 5 mps 753 mmHg 60%
    11:00 +29°C° 0 mm 5 mps 753 mmHg 55%
    12:00 +30°C° 0 mm 5 mps 753 mmHg 49%
    13:00 +30°C° 0 mm 5 mps 753 mmHg 48%
    14:00 +32°C° 0 mm 5 mps 753 mmHg 47%
    15:00 +32°C° 0 mm 5 mps 753 mmHg 46%
    16:00 +30°C° 0 mm 4 mps 753 mmHg 50%
    17:00 +30°C° 0 mm 4 mps 753 mmHg 55%
    18:00 +29°C° 0 mm 3 mps 753 mmHg 59%
    19:00 +27°C° 0 mm 3 mps 753 mmHg 64%
    20:00 +25°C° 0 mm 3 mps 753 mmHg 69%
    21:00 +24°C° 0 mm 3 mps 753 mmHg 74%
    22:00 +22°C° 0 mm 3 mps 754 mmHg 76%
    23:00 +21°C° 0 mm 3 mps 754 mmHg 79%
    Show more